• Join FlightAware (Why Join?)
  • Login
  • US Flag 
05:14AM EDT


 

Airport Tracker/Info


-or-


 

Live Flight TrackerFlight Track Log ✈ DAL268 ✈ 21-Apr-2013 ✈ KATL - KJFK

Flight Track Log - Related Links

Times and Time Zones

All times are in EDT time to prevent confusion due to time zone crossing. See the DAL268 flight status page for this flight to view local times or setup timezone preferences in your user account.

Time Position Orientation Groundspeed Altitude Reporting Facility
EDT Latitude Longitude Course Direction KTS MPH feet Rate Location/Type
06:36PM 33.6333 -84.3667 64° Northeast 179 206 2,800  Level Atlanta TRACON
06:37PM 33.6333 -84.3000 90° East 241 277 4,700 2,460 Climbing Atlanta TRACON
06:38PM 33.7111 -83.9998 101° East  Level FlightAware Approximate
06:38PM 33.6333 -84.2167 90° East 259 298 7,500  Level Atlanta TRACON
06:39PM 33.6877 -83.8591 101° East  Level FlightAware Approximate
06:39PM 33.6333 -84.1167 90° East 297 342 9,400  Level Atlanta TRACON
06:39PM 33.6356 -84.0786 86° East 315 362 10,500 1,560 Climbing Atlanta Center
06:40PM 33.6642 -83.7184 101° East  Level FlightAware Approximate
06:40PM 33.6419 -83.9689 86° East 334 384 11,700  Level Atlanta Center
06:41PM 33.6708 -83.5824 64° Northeast  Level FlightAware Approximate
06:41PM 33.6500 -83.8542 85° East 362 417 12,900  Level Atlanta Center
06:42PM 33.6603 -83.7119 85° East 409 471 14,800 1,920 Climbing Atlanta Center
06:43PM 33.6911 -83.5694 75° East 431 496 16,800 1,860 Climbing Atlanta Center
06:44PM 33.7469 -83.4317 64° Northeast 448 516 18,600 1,680 Climbing Atlanta Center
06:45PM 33.8044 -83.2914 64° Northeast 458 527 20,200 1,500 Climbing Atlanta Center
06:46PM 33.8639 -83.1431 64° Northeast 481 554 21,600 1,260 Climbing Atlanta Center
06:47PM 33.9233 -82.9925 65° Northeast 493 567 22,800 1,200 Climbing Atlanta Center
06:48PM 33.9886 -82.8336 64° Northeast 513 590 24,100 1,440 Climbing Atlanta Center
06:49PM 34.0558 -82.6622 65° Northeast 513 590 25,700 1,380 Climbing Atlanta Center
06:50PM 34.1186 -82.5006 65° Northeast 518 596 26,900 1,200 Climbing Atlanta Center
06:51PM 34.1811 -82.3389 65° Northeast 518 596 28,100 1,260 Climbing Atlanta Center
06:52PM 34.2456 -82.1767 64° Northeast 530 610 29,500 1,320 Climbing Atlanta Center
06:53PM 34.3225 -82.0217 59° Northeast 530 610 30,800 1,020 Climbing Atlanta Center
06:54PM 34.3969 -81.8661 60° Northeast 530 610 31,600 900 Climbing Atlanta Center
06:55PM 34.4736 -81.7131 59° Northeast 530 610 32,600 660 Climbing Atlanta Center
06:56PM 34.5497 -81.5597 59° Northeast 530 610 33,000 180 Climbing Atlanta Center
06:57PM 34.6239 -81.4061 60° Northeast 530 610 33,000  Level Atlanta Center
06:58PM 34.6917 -81.2700 59° Northeast 524 603 33,000  Level Atlanta Center
06:59PM 34.7675 -81.1133 59° Northeast 524 603 33,000  Level Atlanta Center
07:00PM 34.8408 -80.9589 60° Northeast 535 616 33,000  Level Atlanta Center
07:01PM 34.9161 -80.8067 59° Northeast 522 601 33,000  Level Atlanta Center
07:03PM 35.0506 -80.5242 60° Northeast 527 606 33,000  Level Washington Center
07:04PM 35.1328 -80.3539 59° Northeast 527 606 33,000  Level Washington Center
07:05PM 35.2078 -80.1981 59° Northeast 527 606 33,000  Level Washington Center
07:06PM 35.2803 -80.0447 60° Northeast 521 600 33,000  Level Washington Center
07:07PM 35.3567 -79.8936 58° Northeast 516 594 33,000  Level Washington Center
07:08PM 35.4292 -79.7367 60° Northeast 511 588 33,000  Level Washington Center
07:09PM 35.5033 -79.5800 60° Northeast 517 595 33,000  Level Washington Center
07:10PM 35.5772 -79.4253 60° Northeast 517 595 33,000  Level Washington Center
07:11PM 35.6489 -79.2678 61° Northeast 517 595 33,000  Level Washington Center
07:12PM 35.7244 -79.1125 59° Northeast 517 595 33,000  Level Washington Center
07:13PM 35.7958 -78.9544 61° Northeast 512 589 33,000  Level Washington Center
07:14PM 35.8669 -78.7933 61° Northeast 517 595 33,000  Level Washington Center
07:15PM 35.8942 -78.6381 78° East 512 589 33,000  Level Washington Center
07:16PM 35.9089 -78.4617 84° East 512 589 33,000  Level Washington Center
07:17PM 35.9256 -78.2853 83° East 512 589 33,000  Level Washington Center
07:18PM 35.9417 -78.1114 83° East 512 589 33,000  Level Washington Center
07:19PM 35.9578 -77.9347 84° East 512 589 33,000  Level Washington Center
07:20PM 35.9758 -77.7608 83° East 517 595 33,000  Level Washington Center
07:21PM 36.0392 -77.6008 64° Northeast 506 582 33,000  Level Washington Center
07:22PM 36.1289 -77.4589 52° Northeast 506 582 33,000  Level Washington Center
07:23PM 36.2147 -77.3169 53° Northeast 511 588 33,000  Level Washington Center
07:24PM 36.3019 -77.1769 52° Northeast 516 594 33,000  Level Washington Center
07:25PM 36.4022 -77.0164 52° Northeast 522 601 33,000  Level Washington Center
07:26PM 36.4808 -76.8889 52° Northeast 527 606 33,000  Level Washington Center
07:27PM 36.5886 -76.7406 48° Northeast 521 600 33,000  Level Washington Center
07:28PM 36.7064 -76.6361 35° Northeast 502 578 33,000  Level Washington Center
07:29PM 36.8242 -76.5364 34° Northeast 513 590 33,000  Level Washington Center
07:30PM 36.9439 -76.4339 34° Northeast 518 596 33,000  Level Washington Center
07:31PM 37.0633 -76.3311 34° Northeast 518 596 33,000  Level Washington Center
07:32PM 37.1786 -76.2306 35° Northeast 513 590 33,000  Level Washington Center
07:33PM 37.3022 -76.1297 33° Northeast 513 590 33,000  Level Washington Center
07:34PM 37.4194 -76.0286 34° Northeast 513 590 33,000  Level Washington Center
07:35PM 37.5408 -75.9244 34° Northeast 513 590 33,000  Level Washington Center
07:36PM 37.6453 -75.8331 35° Northeast 513 590 33,000  Level Washington Center
07:37PM 37.7642 -75.7283 35° Northeast 513 590 33,000  Level Washington Center
07:38PM 37.8811 -75.6233 35° Northeast 513 590 33,000  Level Washington Center
07:39PM 38.0022 -75.5206 34° Northeast 513 590 33,000  Level Washington Center
07:40PM 38.1231 -75.4281 31° Northeast 513 590 33,000  Level Washington Center
07:41PM 38.2542 -75.3458 26° Northeast 507 583 33,000  Level Washington Center
07:42PM 38.3792 -75.2581 29° Northeast 507 583 33,000  Level Washington Center
07:43PM 38.5081 -75.1806 25° Northeast 502 578 33,000  Level Washington Center
07:44PM 38.6350 -75.0972 27° Northeast 502 578 33,000  Level Washington Center
07:45PM 38.7681 -75.0192 25° Northeast 508 585 33,000  Level Washington Center
07:46PM 38.8947 -74.9383 26° Northeast 508 585 33,000 -60 Level Washington Center
07:47PM 39.0214 -74.8542 27° Northeast 508 585 32,900 -660 Descending Washington Center
07:48PM 39.1356 -74.7619 32° Northeast 495 570 31,700 -1,500 Descending Washington Center
07:49PM 39.2367 -74.6564 39° Northeast 481 554 29,900 -1,800 Descending Washington Center
07:50PM 39.3339 -74.5506 40° Northeast 468 539 28,100 -1,740 Descending Washington Center
07:51PM 39.4203 -74.4417 44° Northeast 445 512 26,400 -1,380 Descending Washington Center
07:52PM 39.4419 -74.2936 79° East 405 466 25,400 -1,020 Descending Washington Center
07:53PM 39.3883 -74.1711 119° Southeast 356 410 24,400 -840 Descending Washington Center
07:54PM 39.2983 -74.1381 164° South 285 328 23,800 -900 Descending Washington Center
07:55PM 39.2322 -74.1983 215° Southwest 239 275 22,700 -1,560 Descending Washington Center
07:56PM 39.2211 -74.3056 262° West 218 251 20,700 -1,800 Descending Washington Center
07:57PM 39.2594 -74.4042 297° West 234 269 19,100 -1,380 Descending Washington Center
07:58PM 39.3167 -74.4811 314° West 265 305 18,000 -840 Descending Washington Center
07:58PM 39.3525 -74.4894 350° North 271 312 18,000  Level New York Center
07:59PM 39.4414 -74.4431 22° Northeast 278 320 18,000  Level New York Center
08:00PM 39.5217 -74.3475 43° Northeast 300 345 18,000  Level New York Center
08:01PM 39.6208 -74.2367 41° Northeast 386 444 18,000 -660 Level New York Center
08:02PM 39.7047 -74.1436 40° Northeast 404 465 16,700 -1,740 Descending New York Center
08:03PM 39.7886 -74.0558 39° Northeast 392 451 14,600 -2,100 Descending New York Center
08:04PM 39.8617 -73.9808 38° Northeast 377 434 12,500 -1,800 Descending New York Center
08:05PM 39.9550 -73.9147 28° Northeast 353 406 11,000 -780 Descending New York Center
08:06PM 40.0294 -73.8639 28° Northeast 316 364 11,000 -60 Level New York Center
08:07PM 40.1017 -73.8131 28° Northeast 297 342 10,900 -540 Descending New York Center
08:08PM 40.1500 -73.7667 36° Northeast 289 333 10,100 -1,020 Descending New York TRACON
08:09PM 40.2333 -73.7167 25° Northeast 282 325 9,100 -960 Descending New York TRACON
08:10PM 40.3000 -73.6833 21° North 273 314 8,100 -600 Descending New York TRACON
08:11PM 40.3667 -73.6500 21° North 269 310 8,000 -60 Descending New York TRACON
08:12PM 40.4333 -73.6167 21° North 271 312 8,000  Level New York TRACON
08:13PM 40.5000 -73.5667 30° Northeast 268 308 8,000 -120 Level New York TRACON
08:14PM 40.5333 -73.4833 62° Northeast 222 255 7,800 -600 Descending New York TRACON
08:15PM 40.5667 -73.4333 49° Northeast 215 247 6,800 -1,020 Descending New York TRACON
08:16PM 40.6167 -73.4000 27° Northeast 219 252 5,800 -1,020 Descending New York TRACON
08:17PM 40.6667 -73.4500 323° Northwest 219 252 4,700 -900 Descending New York TRACON
08:18PM 40.7167 -73.5000 323° Northwest 214 246 4,000 -480 Descending New York TRACON
08:19PM 40.7667 -73.5333 333° Northwest 215 247 3,800 -540 Descending New York TRACON
08:20PM 40.7833 -73.6000 288° West 215 247 3,000 -420 Descending New York TRACON
08:21PM 40.7833 -73.6667 270° West 223 257 3,000 -540 Level New York TRACON
08:22PM 40.7333 -73.7167 217° Southwest 201 231 2,000 -1,020 Descending New York TRACON